Date String (YYYY-MM-DD hh:mm:ss) UTC,Instrument flags,absolute air pressure of the measurement (hPa),sample flow rate (lpm),inlet stack bypass flow (lpm),air temperature of the measurement (°C),ambient temperature measured by the external sensor (°C),aerosol sample conditioner tube jacket temperature (°C),OPC LED temperature (°C),internal box temperature (°C),relative humidity of the measurement (%),span deviation,mass concentration of particles derived from Lorenz-Mie calculation of OPC scattering (μg/m³),mass concentration of particles derived from Lorenz-Mie calculation of OPC scattering (μg/m³),mass concentration of particles derived from Lorenz-Mie calculation of OPC scattering (μg/m³)
DateTimeUTC,F1_M11,P_M11,Q1_M11,Q2_M11,T1_M11,T2_M11,T3_M11,T4_M11,T5_M11,U1_M11,ZSPAN_M11,X0_M11,X2_M11,X1_M11
2023-09-04 18:00:00,SystemResetWarning,0823.0,5.01,000.00,027.9,024.4,000.0,036.1,029.0,33.3,0000.0,0004.63,0002.86,0002.37
2023-09-04 18:01:00,SystemResetWarning,0823.0,5.01,000.00,027.8,024.7,000.0,036.2,029.0,32.8,0000.0,0004.90,0002.87,0002.38
2023-09-04 18:02:00,SystemResetWarning,0823.0,4.99,000.00,027.8,025.1,000.0,036.2,029.2,32.7,0000.0,0005.39,0002.88,0002.38
2023-09-04 18:03:00,SystemResetWarning,0823.0,5.00,000.00,027.8,025.5,000.0,036.2,029.3,33.2,0000.0,0005.33,0002.88,0002.39
2023-09-04 18:04:00,SystemResetWarning,0823.1,5.01,000.00,027.9,025.9,000.0,036.2,029.4,32.9,0000.0,0005.44,0002.91,0002.38
2023-09-04 18:05:00,SystemResetWarning,0823.1,5.00,000.00,027.9,026.2,000.0,036.2,029.5,32.9,0000.0,0005.46,0002.91,0002.39
2023-09-04 18:06:00,SystemResetWarning,0823.1,5.00,000.00,028.0,026.5,000.0,036.2,029.6,33.0,0000.0,0005.46,0002.92,0002.38
2023-09-04 18:07:00,SystemResetWarning,0823.1,5.00,000.00,028.0,026.2,000.0,036.2,029.5,32.4,0000.0,0005.48,0002.94,0002.40
2023-09-04 18:08:00,SystemResetWarning,0823.0,4.99,000.00,027.9,025.1,000.0,036.2,029.1,32.5,0000.0,0005.49,0002.90,0002.39
2023-09-04 18:09:00,SystemResetWarning,0823.0,5.01,000.00,027.8,024.5,000.0,036.1,029.0,32.4,0000.0,0005.42,0002.87,0002.39
2023-09-04 18:10:00,SystemResetWarning,0823.0,5.01,000.00,027.8,024.6,000.0,036.1,028.9,32.7,0000.0,0005.40,0002.86,0002.38
2023-09-04 18:11:00,SystemResetWarning,0823.0,5.00,000.00,027.7,024.9,000.0,036.1,029.0,32.2,0000.0,0006.09,0002.91,0002.39
2023-09-04 18:12:00,SystemResetWarning,0823.0,4.99,000.00,027.7,025.3,000.0,036.1,029.2,32.5,0000.0,0005.48,0002.88,0002.38
2023-09-04 18:13:00,SystemResetWarning,0823.0,5.00,000.00,027.8,025.7,000.0,036.1,029.3,32.5,0000.0,0005.31,0002.87,0002.37
2023-09-04 18:14:00,SystemResetWarning,0823.0,5.00,000.00,027.8,026.1,000.0,036.1,029.5,32.7,0000.0,0005.48,0002.83,0002.37
2023-09-04 18:15:00,SystemResetWarning,0823.0,5.00,000.00,027.9,026.4,000.0,036.2,029.6,32.0,0000.0,0005.23,0002.78,0002.36
2023-09-04 18:16:00,SystemResetWarning,0823.0,5.00,000.00,027.9,026.6,000.0,036.2,029.7,31.9,0000.0,0005.17,0002.74,0002.34
2023-09-04 18:17:00,SystemResetWarning,0823.0,4.98,000.00,027.9,025.8,000.0,036.1,029.3,31.4,0000.0,0006.63,0002.79,0002.34
2023-09-04 18:18:00,SystemResetWarning,0822.9,5.00,000.00,027.8,024.7,000.0,036.1,028.9,32.0,0000.0,0007.20,0002.77,0002.33
2023-09-04 18:19:00,SystemResetWarning,0823.0,5.01,000.00,027.7,024.5,000.0,036.0,028.9,31.6,0000.0,0007.07,0002.77,0002.32
2023-09-04 18:20:00,SystemResetWarning,0822.9,5.01,000.00,027.7,024.7,000.0,036.0,028.9,31.9,0000.0,0007.04,0002.77,0002.33
2023-09-04 18:21:00,SystemResetWarning,0822.8,4.99,000.00,027.7,025.1,000.0,036.0,029.1,30.4,0000.0,0007.12,0002.81,0002.33
2023-09-04 18:22:00,SystemResetWarning,0822.9,5.00,000.00,027.7,025.5,000.0,036.0,029.2,30.5,0000.0,0006.56,0002.81,0002.34
2023-09-04 18:23:00,SystemResetWarning,0822.9,5.00,000.00,027.7,025.9,000.0,036.1,029.4,31.2,0000.0,0006.34,0002.80,0002.33
2023-09-04 18:24:00,SystemResetWarning,0822.9,5.00,000.00,027.8,026.2,000.0,036.1,029.5,31.1,0000.0,0006.02,0002.83,0002.35
2023-09-04 18:25:00,SystemResetWarning,0823.2,5.00,000.00,027.9,026.5,000.0,036.1,029.6,30.5,0000.0,0006.15,0002.88,0002.36
2023-09-04 18:26:00,SystemResetWarning,0823.1,5.00,000.00,027.9,026.4,000.0,036.1,029.6,30.8,0000.0,0006.76,0002.93,0002.37
2023-09-04 18:27:00,SystemResetWarning,0823.0,4.98,000.00,027.8,025.2,000.0,036.0,029.2,30.4,0000.0,0006.85,0002.96,0002.38
2023-09-04 18:28:00,SystemResetWarning,0822.8,5.01,000.00,027.7,024.5,000.0,036.0,029.0,31.4,0000.0,0005.44,0002.90,0002.38
2023-09-04 18:29:00,SystemResetWarning,0822.7,5.02,000.00,027.7,024.5,000.0,036.0,029.0,31.6,0000.0,0004.87,0002.94,0002.39
2023-09-04 18:30:00,SystemResetWarning,0822.7,5.00,000.00,027.6,024.9,000.0,036.0,029.0,31.5,0000.0,0005.29,0002.94,0002.40
2023-09-04 18:31:00,SystemResetWarning,0822.7,5.00,000.00,027.7,025.3,000.0,036.0,029.2,30.4,0000.0,0006.21,0003.00,0002.41
2023-09-04 18:32:00,SystemResetWarning,0822.8,5.00,000.00,027.7,025.7,000.0,036.0,029.3,31.2,0000.0,0006.73,0002.98,0002.41
2023-09-04 18:33:00,SystemResetWarning,0822.8,5.00,000.00,027.8,026.1,000.0,036.1,029.5,30.3,0000.0,0006.70,0002.95,0002.42
2023-09-04 18:34:00,SystemResetWarning,0822.8,5.01,000.00,027.8,026.4,000.0,036.1,029.6,29.1,0000.0,0006.75,0002.96,0002.43
2023-09-04 18:35:00,SystemResetWarning,0822.7,5.00,000.00,027.9,026.4,000.0,036.1,029.5,29.5,0000.0,0006.70,0002.96,0002.41
2023-09-04 18:36:00,SystemResetWarning,0822.7,4.98,000.00,027.8,025.3,000.0,036.0,029.1,28.8,0000.0,0006.41,0002.93,0002.39
2023-09-04 18:37:00,SystemResetWarning,0822.8,5.01,000.00,027.7,024.5,000.0,036.0,028.9,29.8,0000.0,0006.17,0002.91,0002.38
2023-09-04 18:38:00,SystemResetWarning,0822.6,5.01,000.00,027.7,024.6,000.0,035.9,028.9,28.5,0000.0,0006.71,0002.87,0002.37
2023-09-04 18:39:00,SystemResetWarning,0822.7,4.99,000.00,027.6,024.9,000.0,036.0,029.0,27.3,0000.0,0007.06,0002.87,0002.37
2023-09-04 18:40:00,SystemResetWarning,0822.6,5.00,000.00,027.6,025.3,000.0,036.0,029.2,28.2,0000.0,0007.38,0002.82,0002.36
2023-09-04 18:41:00,SystemResetWarning,0822.7,5.01,000.00,027.7,025.7,000.0,036.0,029.3,29.6,0000.0,0007.20,0002.79,0002.34
2023-09-04 18:42:00,SystemResetWarning,0822.7,4.99,000.00,027.7,026.1,000.0,036.0,029.4,28.4,0000.0,0006.48,0002.75,0002.31
2023-09-04 18:43:00,SystemResetWarning,0822.6,5.00,000.00,027.8,026.4,000.0,036.0,029.6,28.3,0000.0,0005.82,0002.74,0002.30
2023-09-04 18:44:00,SystemResetWarning,0822.6,4.99,000.00,027.8,025.9,000.0,036.0,029.4,28.8,0000.0,0005.84,0002.76,0002.28
2023-09-04 18:45:00,SystemResetWarning,0822.6,5.00,000.00,027.7,024.8,000.0,036.0,029.0,28.9,0000.0,0005.93,0002.77,0002.26
2023-09-04 18:46:00,SystemResetWarning,0822.8,5.01,000.00,027.6,024.5,000.0,035.9,028.9,29.5,0000.0,0005.89,0002.75,0002.25
2023-09-04 18:47:00,SystemResetWarning,0822.5,5.00,000.00,027.6,024.7,000.0,035.9,029.0,30.1,0000.0,0006.09,0002.73,0002.26
2023-09-04 18:48:00,SystemResetWarning,0822.6,4.99,000.00,027.6,025.1,000.0,035.9,029.1,30.1,0000.0,0006.06,0002.73,0002.25
2023-09-04 18:49:00,SystemResetWarning,0822.6,5.00,000.00,027.6,025.5,000.0,035.9,029.2,30.0,0000.0,0005.24,0002.77,0002.25
2023-09-04 18:50:00,SystemResetWarning,0822.6,5.01,000.00,027.7,025.9,000.0,036.0,029.4,30.3,0000.0,0005.08,0002.79,0002.25
2023-09-04 18:51:00,SystemResetWarning,0822.7,5.01,000.00,027.8,026.3,000.0,036.0,029.5,29.3,0000.0,0004.49,0002.80,0002.23
2023-09-04 18:52:00,SystemResetWarning,0822.5,5.00,000.00,027.8,026.6,000.0,036.0,029.6,29.2,0000.0,0004.36,0002.80,0002.23
2023-09-04 18:53:00,SystemResetWarning,0822.6,4.99,000.00,027.8,026.1,000.0,036.0,029.5,29.7,0000.0,0004.35,0002.80,0002.22
2023-09-04 18:54:00,SystemResetWarning,0823.0,5.00,000.00,027.8,025.0,000.0,035.9,029.0,28.8,0000.0,0004.31,0002.79,0002.23
2023-09-04 18:55:00,SystemResetWarning,0822.8,5.01,000.00,027.7,024.5,000.0,035.9,028.9,28.7,0000.0,0004.24,0002.76,0002.23
2023-09-04 18:56:00,SystemResetWarning,0822.4,5.01,000.00,027.6,024.7,000.0,035.9,028.9,28.9,0000.0,0004.05,0002.71,0002.24
2023-09-04 18:57:00,SystemResetWarning,0822.4,5.00,000.00,027.6,025.1,000.0,035.9,029.1,28.6,0000.0,0004.22,0002.71,0002.24
2023-09-04 18:58:00,SystemResetWarning,0822.4,5.00,000.00,027.6,025.5,000.0,035.9,029.3,27.3,0000.0,0004.53,0002.74,0002.22
2023-09-04 18:59:00,SystemResetWarning,0822.4,5.00,000.00,027.7,026.0,000.0,036.0,029.4,27.3,0000.0,0005.01,0002.73,0002.21
